Location: Wien
(48.2082°N, 16.3738°E)
Time: 12:51:18
(UTC+02:00)

Tiros 1 despin weight - Pass Details

Date: 12 September 2024
Orbit: 573 x 615 km, 48.2° (Epoch: 06 October)

Event Time Altitude Azimuth Distance (km) Brightness Sun altitude
Rises 08:40:12 0° 276° (W) 2,892 ? 20.9°
Reaches altitude 10° 08:42:31 10° 276° (W) 1,985 ? 21.3°
Maximum altitude 08:47:05 86° 190° (S) 624 ? 22.0°
Drops below altitude 10° 08:51:38 10° 100° (E) 1,969 ? 22.7°
Sets 08:53:55 0° 100° (E) 2,867 ? 23.1°
